Eau Claire, WI

3:42 AM CDT on May 28, 2017 (GMT -0500)
Chippewa Valley Regional

Weather History for KEAU - December, 2013

Change the Weather History Date:

Tuesday, December 31, 2013

  Actual Average Record
Temperature  
Mean Temperature -10 °F 15 °F  
Max Temperature 0 °F 24 °F 50 °F (1965)
Min Temperature -20 °F 7 °F -26 °F (1967)
Degree Days  
Heating Degree Days 75 50  
Month to date heating degree days 1665 1431  
Since 1 July heating degree days 3410 3176  
Cooling Degree Days 0 0  
Month to date cooling degree days 0 0  
Year to date cooling degree days 653 579  
Moisture  
Dew Point -13 °F    
Average Humidity 75    
Maximum Humidity 92    
Minimum Humidity 58    
Precipitation  
Precipitation T in 0.03 in 0.65 in (2006)
Month to date precipitation 1.53 1.00  
Year to date precipitation 35.90 30.98  
Snow  
Snow T in 0.30 in 6.10 in (1977)
Month to date snowfall 18.9 9.5  
Since 1 July snowfall 21.1 15.8  
Snow Depth 8.00 in    
Sea Level Pressure  
Sea Level Pressure 30.35 in    
Wind  
Wind Speed 5 mph (WNW)    
Max Wind Speed 14 mph    
Max Gust Speed 17 mph    
Visibility 9 miles    
Events      
T = Trace of Precipitation, MM = Missing Value Source: NWS Daily Summary

Daily Weather History Graph

Daily Weather History Graph

Search for Another Location

Airport or City:

Trip Planner

Search our weather history database for the weather conditions in past years. The results will help you decide how hot, cold, wet, or windy it might be!

Date:

Astronomy

Dec. 31, 2013 Rise Set
Actual Time 7:43 AM CST 4:34 PM CST
Civil Twilight 7:10 AM CST 5:08 PM CST
Nautical Twilight 6:33 AM CST 5:45 PM CST
Astronomical Twilight 5:57 AM CST 6:20 PM CST
Moon 6:34 AM CST (12/31) 4:13 PM CST (12/31)
Length of Visible Light 9h 58m
Length of Day
8h 51m
Waning Crescent, 1% of the Moon is Illuminated
Dec 31
Waning Crescent
Jan 1
New
Jan 7
First Quarter
Jan 15
Full
Jan 23
Last Quarter

Hourly Weather History & Observations

Time (CST) Temp. Windchill Dew Point Humidity Pressure Visibility Wind Dir Wind Speed Gust Speed Precip Events Conditions
12:56 AM -2.0 °F - -7.1 °F 79% 30.23 in 8.0 mi Calm Calm - 0.00 in   Overcast
1:56 AM -0.9 °F -11.0 °F -7.1 °F 75% 30.23 in 9.0 mi WSW 4.6 mph - N/A   Overcast
2:56 AM -0.9 °F -11.0 °F -6.0 °F 79% 30.25 in 7.0 mi WSW 4.6 mph - N/A   Overcast
3:56 AM -2.0 °F -13.9 °F -7.1 °F 79% 30.25 in 8.0 mi SW 5.8 mph - N/A   Overcast
4:56 AM -5.1 °F -17.6 °F -9.0 °F 83% 30.26 in 10.0 mi West 5.8 mph - N/A   Clear
5:56 AM -6.0 °F -18.6 °F -11.0 °F 79% 30.29 in 10.0 mi West 5.8 mph - N/A   Clear
6:56 AM -9.0 °F -20.4 °F -11.9 °F 87% 30.29 in 10.0 mi WNW 4.6 mph - N/A   Clear
7:56 AM -9.0 °F - -13.0 °F 83% 30.29 in 10.0 mi Calm Calm - N/A   Clear
8:56 AM -9.0 °F -25.2 °F -14.1 °F 79% 30.33 in 9.0 mi WSW 8.1 mph - N/A   Scattered Clouds
9:16 AM -8.0 °F -23.9 °F -11.9 °F 83% 30.26 in 3.0 mi WSW 8.1 mph - N/A   Overcast
9:56 AM -7.1 °F -25.0 °F -11.0 °F 83% 30.37 in 9.0 mi WSW 10.4 mph - N/A   Partly Cloudy
10:56 AM -4.0 °F -23.0 °F -11.9 °F 69% 30.37 in 10.0 mi WNW 12.7 mph - N/A   Overcast
11:56 AM -2.9 °F -18.8 °F -11.9 °F 65% 30.37 in 10.0 mi West 9.2 mph - N/A   Overcast
12:56 PM -2.9 °F -18.8 °F -11.9 °F 65% 30.36 in 10.0 mi WNW 9.2 mph - N/A   Partly Cloudy
1:56 PM -2.0 °F -17.7 °F -11.9 °F 63% 30.36 in 10.0 mi NW 9.2 mph - N/A   Scattered Clouds
2:56 PM -2.9 °F -17.7 °F -13.0 °F 62% 30.37 in 10.0 mi NW 8.1 mph - N/A   Clear
3:56 PM -2.9 °F -13.3 °F -13.0 °F 62% 30.38 in 10.0 mi NW 4.6 mph - N/A   Clear
4:56 PM -4.0 °F -14.6 °F -14.1 °F 62% 30.39 in 10.0 mi NNW 4.6 mph - N/A   Clear
5:56 PM -8.0 °F -16.9 °F -15.0 °F 71% 30.42 in 10.0 mi NNW 3.5 mph - N/A   Clear
6:56 PM -9.0 °F - -15.0 °F 75% 30.43 in 10.0 mi Calm Calm - N/A   Clear
7:56 PM -11.9 °F - -16.1 °F 82% 30.46 in 10.0 mi Calm Calm - N/A   Clear
8:56 PM -16.1 °F - -20.0 °F 82% 30.46 in 10.0 mi Calm Calm - N/A   Clear
9:56 PM -14.1 °F - -18.0 °F 82% 30.48 in 10.0 mi Calm Calm - N/A   Clear
10:56 PM -16.1 °F -28.6 °F -20.0 °F 82% 30.48 in 10.0 mi North 4.6 mph - N/A   Clear
11:56 PM -18.0 °F -33.0 °F -23.1 °F 78% 30.48 in 10.0 mi NE 5.8 mph - N/A   Clear